Time,TemperatureF,DewpointF,PressureIn,WindDirection,WindDirectionDegrees,WindSpeedMPH,WindSpeedGustMPH,Humidity,HourlyPrecipIn,Conditions,Clouds,dailyrainin,SoftwareType,DateUTC
2013-07-17 00:04:00,75.4,53.7,29.86,WNW,290,6.0,21.0,47,0.00,,,0.00,Weather View 32 v70,2013-07-17 07:04:00,
2013-07-17 00:09:00,75.3,53.6,29.86,West,273,11.0,21.0,47,0.00,,,0.00,Weather View 32 v70,2013-07-17 07:09:00,
2013-07-17 00:14:00,75.1,54.0,29.86,WSW,241,6.0,21.0,48,0.00,,,0.00,Weather View 32 v70,2013-07-17 07:14:00,
2013-07-17 00:19:00,74.9,54.4,29.86,WNW,286,7.0,21.0,49,0.00,,,0.00,Weather View 32 v70,2013-07-17 07:19:00,
2013-07-17 00:24:00,74.6,54.7,29.87,West,271,9.0,21.0,50,0.00,,,0.00,Weather View 32 v70,2013-07-17 07:24:00,
2013-07-17 00:29:00,74.6,54.7,29.86,West,265,2.0,21.0,50,0.00,,,0.00,Weather View 32 v70,2013-07-17 07:29:00,
2013-07-17 00:34:00,74.2,54.3,29.86,West,261,4.0,21.0,50,0.00,,,0.00,Weather View 32 v70,2013-07-17 07:34:00,
2013-07-17 00:39:00,74.0,54.7,29.87,West,269,8.0,21.0,51,0.00,,,0.00,Weather View 32 v70,2013-07-17 07:39:00,
2013-07-17 00:44:00,73.7,54.9,29.87,WNW,285,4.0,21.0,52,0.00,,,0.00,Weather View 32 v70,2013-07-17 07:44:00,
2013-07-17 00:49:00,73.3,55.1,29.87,NW,304,4.0,20.0,53,0.00,,,0.00,Weather View 32 v70,2013-07-17 07:49:00,
2013-07-17 00:54:00,73.0,55.3,29.87,NW,305,7.0,20.0,54,0.00,,,0.00,Weather View 32 v70,2013-07-17 07:54:00,
2013-07-17 00:59:00,72.7,55.5,29.88,WNW,303,21.0,21.0,55,0.00,,,0.00,Weather View 32 v70,2013-07-17 07:59:00,
2013-07-17 01:04:00,72.3,55.7,29.88,WSW,254,6.0,21.0,56,0.00,,,0.00,Weather View 32 v70,2013-07-17 08:04:00,
2013-07-17 01:09:00,72.0,56.4,29.88,WNW,287,7.0,21.0,58,0.00,,,0.00,Weather View 32 v70,2013-07-17 08:09:00,
2013-07-17 01:14:00,71.8,56.2,29.88,West,273,7.0,21.0,58,0.00,,,0.00,Weather View 32 v70,2013-07-17 08:14:00,
2013-07-17 01:19:00,71.3,56.2,29.88,West,279,4.0,21.0,59,0.00,,,0.00,Weather View 32 v70,2013-07-17 08:19:00,
2013-07-17 01:23:00,70.9,56.3,29.88,West,268,2.0,21.0,60,0.00,,,0.00,Weather View 32 v70,2013-07-17 08:23:00,
2013-07-17 01:28:00,70.6,56.5,29.89,WSW,246,5.0,21.0,61,0.00,,,0.00,Weather View 32 v70,2013-07-17 08:28:00,
2013-07-17 01:33:00,70.3,56.6,29.89,SW,215,3.0,21.0,62,0.00,,,0.00,Weather View 32 v70,2013-07-17 08:33:00,
2013-07-17 01:38:00,69.9,56.2,29.90,NW,309,11.0,21.0,62,0.00,,,0.00,Weather View 32 v70,2013-07-17 08:38:00,
2013-07-17 01:43:00,69.8,56.6,29.90,WNW,294,5.0,22.0,63,0.00,,,0.00,Weather View 32 v70,2013-07-17 08:43:00,
2013-07-17 01:44:00,69.8,56.6,29.90,West,278,2.0,22.0,63,0.00,,,0.00,Weather View 32 v70,2013-07-17 08:44:00,
2013-07-17 01:49:00,69.3,56.6,29.90,West,268,8.0,22.0,64,0.00,,,0.00,Weather View 32 v70,2013-07-17 08:49:00,
2013-07-17 01:54:00,69.1,56.4,29.89,WSW,257,4.0,22.0,64,0.00,,,0.00,Weather View 32 v70,2013-07-17 08:54:00,
2013-07-17 01:59:00,68.9,56.2,29.89,WNW,284,3.0,23.0,64,0.00,,,0.00,Weather View 32 v70,2013-07-17 08:59:00,
2013-07-17 02:04:00,68.8,56.5,29.90,WSW,253,8.0,23.0,65,0.00,,,0.00,Weather View 32 v70,2013-07-17 09:04:00,
2013-07-17 02:09:00,68.3,56.0,29.90,West,264,10.0,23.0,65,0.00,,,0.00,Weather View 32 v70,2013-07-17 09:09:00,
2013-07-17 02:14:00,68.1,55.9,29.89,NW,304,9.0,23.0,65,0.00,,,0.00,Weather View 32 v70,2013-07-17 09:14:00,
2013-07-17 02:19:00,67.8,55.6,29.90,WNW,300,9.0,23.0,65,0.00,,,0.00,Weather View 32 v70,2013-07-17 09:19:00,
2013-07-17 02:24:00,67.4,55.6,29.90,NW,304,5.0,23.0,66,0.00,,,0.00,Weather View 32 v70,2013-07-17 09:24:00,
2013-07-17 02:29:00,66.9,55.6,29.90,West,280,7.0,23.0,67,0.00,,,0.00,Weather View 32 v70,2013-07-17 09:29:00,
2013-07-17 02:34:00,66.6,55.7,29.91,West,276,11.0,23.0,68,0.00,,,0.00,Weather View 32 v70,2013-07-17 09:34:00,
2013-07-17 02:39:00,66.4,55.5,29.91,West,271,9.0,23.0,68,0.00,,,0.00,Weather View 32 v70,2013-07-17 09:39:00,
2013-07-17 02:44:00,66.3,55.4,29.91,West,265,4.0,23.0,68,0.00,,,0.00,Weather View 32 v70,2013-07-17 09:44:00,
2013-07-17 02:49:00,66.3,55.4,29.91,WNW,300,4.0,23.0,68,0.00,,,0.00,Weather View 32 v70,2013-07-17 09:49:00,
2013-07-17 02:54:00,66.0,55.5,29.91,WSW,258,5.0,23.0,69,0.00,,,0.00,Weather View 32 v70,2013-07-17 09:54:00,
2013-07-17 02:59:00,65.8,55.3,29.91,WNW,303,10.0,23.0,69,0.00,,,0.00,Weather View 32 v70,2013-07-17 09:59:00,
2013-07-17 03:04:00,65.8,55.3,29.90,WNW,301,11.0,23.0,69,0.00,,,0.00,Weather View 32 v70,2013-07-17 10:04:00,
2013-07-17 03:09:00,65.8,55.3,29.91,West,281,10.0,23.0,69,0.00,,,0.00,Weather View 32 v70,2013-07-17 10:09:00,
2013-07-17 03:14:00,65.6,55.1,29.92,WNW,298,4.0,23.0,69,0.00,,,0.00,Weather View 32 v70,2013-07-17 10:14:00,
2013-07-17 03:19:00,65.3,54.8,29.93,WSW,239,17.0,23.0,69,0.00,,,0.00,Weather View 32 v70,2013-07-17 10:19:00,
2013-07-17 03:24:00,65.2,54.7,29.93,NW,311,4.0,23.0,69,0.00,,,0.00,Weather View 32 v70,2013-07-17 10:24:00,
2013-07-17 03:29:00,65.0,54.9,29.93,NW,308,4.0,23.0,70,0.00,,,0.00,Weather View 32 v70,2013-07-17 10:29:00,
2013-07-17 03:34:00,65.0,54.9,29.93,WNW,284,3.0,22.0,70,0.00,,,0.00,Weather View 32 v70,2013-07-17 10:34:00,
2013-07-17 03:39:00,65.0,54.9,29.93,West,263,10.0,22.0,70,0.00,,,0.00,Weather View 32 v70,2013-07-17 10:39:00,
2013-07-17 03:44:00,65.0,55.3,29.93,West,275,3.0,22.0,71,0.00,,,0.00,Weather View 32 v70,2013-07-17 10:44:00,
2013-07-17 03:49:00,65.2,55.1,29.94,SW,215,6.0,22.0,70,0.00,,,0.00,Weather View 32 v70,2013-07-17 10:49:00,
2013-07-17 03:54:00,65.0,54.9,29.94,West,273,2.0,22.0,70,0.00,,,0.00,Weather View 32 v70,2013-07-17 10:54:00,
2013-07-17 03:59:00,64.7,55.1,29.95,WNW,282,6.0,21.0,71,0.00,,,0.00,Weather View 32 v70,2013-07-17 10:59:00,
2013-07-17 04:04:00,64.2,54.6,29.95,West,281,3.0,21.0,71,0.00,,,0.00,Weather View 32 v70,2013-07-17 11:04:00,
2013-07-17 04:09:00,63.9,54.7,29.96,WSW,245,4.0,21.0,72,0.00,,,0.00,Weather View 32 v70,2013-07-17 11:09:00,
2013-07-17 04:14:00,63.7,54.5,29.95,West,279,4.0,21.0,72,0.00,,,0.00,Weather View 32 v70,2013-07-17 11:14:00,
2013-07-17 04:19:00,63.7,54.9,29.95,WSW,257,6.0,21.0,73,0.00,,,0.00,Weather View 32 v70,2013-07-17 11:19:00,
2013-07-17 04:24:00,63.5,54.7,29.96,WSW,256,10.0,21.0,73,0.00,,,0.00,Weather View 32 v70,2013-07-17 11:24:00,
2013-07-17 04:29:00,63.4,54.6,29.96,West,263,3.0,21.0,73,0.00,,,0.00,Weather View 32 v70,2013-07-17 11:29:00,
2013-07-17 04:33:00,63.4,54.6,29.96,West,273,1.0,20.0,73,0.00,,,0.00,Weather View 32 v70,2013-07-17 11:33:00,
2013-07-17 04:38:00,63.4,54.6,29.96,West,265,4.0,20.0,73,0.00,,,0.00,Weather View 32 v70,2013-07-17 11:38:00,
2013-07-17 04:43:00,63.2,54.8,29.96,WSW,258,3.0,20.0,74,0.00,,,0.00,Weather View 32 v70,2013-07-17 11:43:00,
2013-07-17 04:48:00,63.2,54.8,29.96,WSW,240,6.0,20.0,74,0.00,,,0.00,Weather View 32 v70,2013-07-17 11:48:00,
2013-07-17 04:53:00,63.2,54.8,29.97,West,275,9.0,20.0,74,0.00,,,0.00,Weather View 32 v70,2013-07-17 11:53:00,
2013-07-17 04:58:00,63.2,54.8,29.98,West,264,13.0,19.0,74,0.00,,,0.00,Weather View 32 v70,2013-07-17 11:58:00,
2013-07-17 05:03:00,63.2,54.8,29.98,North,0,3.0,19.0,74,0.00,,,0.00,Weather View 32 v70,2013-07-17 12:03:00,
2013-07-17 05:08:00,63.1,54.7,29.98,WNW,297,3.0,19.0,74,0.00,,,0.00,Weather View 32 v70,2013-07-17 12:08:00,
2013-07-17 05:13:00,63.1,54.7,29.98,NW,306,6.0,19.0,74,0.00,,,0.00,Weather View 32 v70,2013-07-17 12:13:00,
2013-07-17 05:18:00,62.9,54.5,29.99,West,266,2.0,19.0,74,0.00,,,0.00,Weather View 32 v70,2013-07-17 12:18:00,
2013-07-17 05:23:00,62.9,54.5,29.99,West,273,3.0,19.0,74,0.00,,,0.00,Weather View 32 v70,2013-07-17 12:23:00,
2013-07-17 05:28:00,62.9,54.5,29.98,West,275,1.0,19.0,74,0.00,,,0.00,Weather View 32 v70,2013-07-17 12:28:00,
2013-07-17 05:33:00,62.9,54.5,29.98,SW,233,4.0,20.0,74,0.00,,,0.00,Weather View 32 v70,2013-07-17 12:33:00,
2013-07-17 05:38:00,62.9,54.5,29.98,West,259,5.0,20.0,74,0.00,,,0.00,Weather View 32 v70,2013-07-17 12:38:00,
2013-07-17 05:43:00,63.1,54.7,29.98,West,267,3.0,20.0,74,0.00,,,0.00,Weather View 32 v70,2013-07-17 12:43:00,
2013-07-17 05:48:00,62.9,54.5,29.99,West,275,4.0,20.0,74,0.00,,,0.00,Weather View 32 v70,2013-07-17 12:48:00,
2013-07-17 05:53:00,62.7,54.3,29.99,WSW,254,13.0,20.0,74,0.00,,,0.00,Weather View 32 v70,2013-07-17 12:53:00,
2013-07-17 05:58:00,62.4,54.0,30.00,West,278,23.0,23.0,74,0.00,,,0.00,Weather View 32 v70,2013-07-17 12:58:00,
2013-07-17 06:03:00,62.4,54.3,30.00,West,267,4.0,23.0,75,0.00,,,0.00,Weather View 32 v70,2013-07-17 13:03:00,
2013-07-17 06:08:00,62.4,54.3,30.00,NW,309,4.0,23.0,75,0.00,,,0.00,Weather View 32 v70,2013-07-17 13:08:00,
2013-07-17 06:13:00,62.4,54.3,30.00,WSW,254,12.0,23.0,75,0.00,,,0.00,Weather View 32 v70,2013-07-17 13:13:00,
2013-07-17 06:18:00,62.6,54.5,30.00,West,268,7.0,23.0,75,0.00,,,0.00,Weather View 32 v70,2013-07-17 13:18:00,
2013-07-17 06:23:00,62.6,54.2,30.00,West,261,10.0,23.0,74,0.00,,,0.00,Weather View 32 v70,2013-07-17 13:23:00,
2013-07-17 06:28:00,62.6,54.2,30.00,WNW,302,6.0,23.0,74,0.00,,,0.00,Weather View 32 v70,2013-07-17 13:28:00,
2013-07-17 06:33:00,62.7,53.9,30.00,WNW,286,13.0,23.0,73,0.00,,,0.00,Weather View 32 v70,2013-07-17 13:33:00,
2013-07-17 06:38:00,63.1,54.3,30.00,WNW,300,5.0,23.0,73,0.00,,,0.00,Weather View 32 v70,2013-07-17 13:38:00,
2013-07-17 06:43:00,63.1,54.3,30.00,NNW,334,9.0,23.0,73,0.00,,,0.00,Weather View 32 v70,2013-07-17 13:43:00,
2013-07-17 06:48:00,63.1,54.3,30.01,NW,315,7.0,23.0,73,0.00,,,0.00,Weather View 32 v70,2013-07-17 13:48:00,
2013-07-17 06:53:00,63.1,54.7,30.01,NW,305,8.0,23.0,74,0.00,,,0.00,Weather View 32 v70,2013-07-17 13:53:00,
2013-07-17 06:58:00,63.1,53.9,30.01,WSW,257,2.0,23.0,72,0.00,,,0.00,Weather View 32 v70,2013-07-17 13:58:00,
2013-07-17 07:03:00,62.9,53.7,30.01,WNW,299,11.0,24.0,72,0.00,,,0.00,Weather View 32 v70,2013-07-17 14:03:00,
2013-07-17 07:08:00,62.7,53.5,30.01,WNW,293,7.0,24.0,72,0.00,,,0.00,Weather View 32 v70,2013-07-17 14:08:00,
2013-07-17 07:13:00,62.7,53.9,30.01,NW,306,10.0,28.0,73,0.00,,,0.00,Weather View 32 v70,2013-07-17 14:13:00,
2013-07-17 07:18:00,62.9,53.7,30.02,West,263,6.0,28.0,72,0.00,,,0.00,Weather View 32 v70,2013-07-17 14:18:00,
2013-07-17 07:23:00,63.1,53.9,30.02,WNW,291,4.0,28.0,72,0.00,,,0.00,Weather View 32 v70,2013-07-17 14:23:00,
2013-07-17 07:28:00,63.4,53.8,30.03,West,280,6.0,28.0,71,0.00,,,0.00,Weather View 32 v70,2013-07-17 14:28:00,
2013-07-17 07:33:00,63.5,53.5,30.02,West,270,9.0,28.0,70,0.00,,,0.00,Weather View 32 v70,2013-07-17 14:33:00,
2013-07-17 07:38:00,63.7,53.7,30.04,West,259,9.0,28.0,70,0.00,,,0.00,Weather View 32 v70,2013-07-17 14:38:00,
2013-07-17 07:43:00,63.5,53.1,30.03,West,278,3.0,28.0,69,0.00,,,0.00,Weather View 32 v70,2013-07-17 14:43:00,
2013-07-17 07:48:00,63.5,53.1,30.03,West,265,5.0,28.0,69,0.00,,,0.00,Weather View 32 v70,2013-07-17 14:48:00,
2013-07-17 07:53:00,63.7,53.3,30.04,WSW,247,12.0,28.0,69,0.00,,,0.00,Weather View 32 v70,2013-07-17 14:53:00,
2013-07-17 07:58:00,63.7,53.3,30.03,West,269,5.0,28.0,69,0.00,,,0.00,Weather View 32 v70,2013-07-17 14:58:00,
2013-07-17 08:03:00,63.9,53.5,30.03,West,261,5.0,28.0,69,0.00,,,0.00,Weather View 32 v70,2013-07-17 15:03:00,
2013-07-17 08:08:00,64.0,53.6,30.03,West,277,6.0,28.0,69,0.00,,,0.00,Weather View 32 v70,2013-07-17 15:08:00,
2013-07-17 08:13:00,64.3,53.5,30.04,WNW,294,13.0,22.0,68,0.00,,,0.00,Weather View 32 v70,2013-07-17 15:13:00,
2013-07-17 08:18:00,64.5,53.7,30.04,WNW,288,10.0,21.0,68,0.00,,,0.00,Weather View 32 v70,2013-07-17 15:18:00,
2013-07-17 08:23:00,64.3,53.5,30.04,West,265,10.0,21.0,68,0.00,,,0.00,Weather View 32 v70,2013-07-17 15:23:00,
2013-07-17 08:28:00,64.5,53.7,30.04,West,272,9.0,23.0,68,0.00,,,0.00,Weather View 32 v70,2013-07-17 15:28:00,
2013-07-17 08:33:00,64.2,53.8,30.04,West,278,5.0,23.0,69,0.00,,,0.00,Weather View 32 v70,2013-07-17 15:33:00,
2013-07-17 08:38:00,64.3,53.9,30.04,NW,325,10.0,23.0,69,0.00,,,0.00,Weather View 32 v70,2013-07-17 15:38:00,
2013-07-17 08:43:00,64.5,53.7,30.04,WNW,283,11.0,23.0,68,0.00,,,0.00,Weather View 32 v70,2013-07-17 15:43:00,
2013-07-17 08:48:00,64.8,53.6,30.04,West,270,9.0,23.0,67,0.00,,,0.00,Weather View 32 v70,2013-07-17 15:48:00,
2013-07-17 08:53:00,65.2,53.9,30.04,WNW,288,7.0,23.0,67,0.00,,,0.00,Weather View 32 v70,2013-07-17 15:53:00,
2013-07-17 08:58:00,65.5,53.8,30.04,West,270,12.0,23.0,66,0.00,,,0.00,Weather View 32 v70,2013-07-17 15:58:00,
2013-07-17 09:03:00,65.5,53.8,30.04,WNW,287,4.0,23.0,66,0.00,,,0.00,Weather View 32 v70,2013-07-17 16:03:00,
2013-07-17 09:08:00,65.5,53.8,30.04,WNW,292,5.0,29.0,66,0.00,,,0.00,Weather View 32 v70,2013-07-17 16:08:00,
2013-07-17 09:13:00,65.3,53.6,30.05,NW,306,9.0,29.0,66,0.00,,,0.00,Weather View 32 v70,2013-07-17 16:13:00,
2013-07-17 09:18:00,65.5,54.2,30.04,WNW,296,15.0,29.0,67,0.00,,,0.00,Weather View 32 v70,2013-07-17 16:18:00,
2013-07-17 09:23:00,65.5,53.8,30.04,WSW,257,16.0,29.0,66,0.00,,,0.00,Weather View 32 v70,2013-07-17 16:23:00,
2013-07-17 09:28:00,65.5,53.8,30.04,NNW,334,8.0,29.0,66,0.00,,,0.00,Weather View 32 v70,2013-07-17 16:28:00,
2013-07-17 09:33:00,65.6,53.9,30.04,NW,315,13.0,29.0,66,0.00,,,0.00,Weather View 32 v70,2013-07-17 16:33:00,
2013-07-17 09:38:00,66.0,53.9,30.04,WNW,298,14.0,29.0,65,0.00,,,0.00,Weather View 32 v70,2013-07-17 16:38:00,
2013-07-17 09:43:00,66.0,53.9,30.04,West,265,17.0,29.0,65,0.00,,,0.00,Weather View 32 v70,2013-07-17 16:43:00,
2013-07-17 09:48:00,66.0,53.9,30.04,SSW,198,6.0,29.0,65,0.00,,,0.00,Weather View 32 v70,2013-07-17 16:48:00,
2013-07-17 09:53:00,66.1,54.0,30.04,WNW,283,9.0,29.0,65,0.00,,,0.00,Weather View 32 v70,2013-07-17 16:53:00,
2013-07-17 09:58:00,66.4,53.8,30.04,WSW,251,11.0,29.0,64,0.00,,,0.00,Weather View 32 v70,2013-07-17 16:58:00,
2013-07-17 10:03:00,66.4,53.8,30.04,WNW,296,4.0,29.0,64,0.00,,,0.00,Weather View 32 v70,2013-07-17 17:03:00,
2013-07-17 10:08:00,66.6,54.0,30.04,West,281,8.0,28.0,64,0.00,,,0.00,Weather View 32 v70,2013-07-17 17:08:00,
2013-07-17 10:13:00,66.9,54.3,30.04,West,262,8.0,28.0,64,0.00,,,0.00,Weather View 32 v70,2013-07-17 17:13:00,
2013-07-17 10:18:00,67.3,53.8,30.05,West,262,4.0,28.0,62,0.00,,,0.00,Weather View 32 v70,2013-07-17 17:18:00,
2013-07-17 10:23:00,67.3,53.8,30.04,WNW,296,12.0,28.0,62,0.00,,,0.00,Weather View 32 v70,2013-07-17 17:23:00,
2013-07-17 10:28:00,67.3,54.2,30.05,West,277,14.0,28.0,63,0.00,,,0.00,Weather View 32 v70,2013-07-17 17:28:00,
2013-07-17 10:33:00,67.4,53.9,30.04,West,260,24.0,28.0,62,0.00,,,0.00,Weather View 32 v70,2013-07-17 17:33:00,
2013-07-17 10:38:00,67.3,53.8,30.04,WNW,299,7.0,28.0,62,0.00,,,0.00,Weather View 32 v70,2013-07-17 17:38:00,
2013-07-17 10:43:00,67.6,54.1,30.04,NW,311,9.0,28.0,62,0.00,,,0.00,Weather View 32 v70,2013-07-17 17:43:00,
2013-07-17 10:48:00,67.8,54.3,30.04,NW,304,21.0,28.0,62,0.00,,,0.00,Weather View 32 v70,2013-07-17 17:48:00,
2013-07-17 10:53:00,68.3,54.3,30.04,WNW,292,4.0,26.0,61,0.00,,,0.00,Weather View 32 v70,2013-07-17 17:53:00,
2013-07-17 10:58:00,68.3,54.3,30.04,WNW,300,17.0,26.0,61,0.00,,,0.00,Weather View 32 v70,2013-07-17 17:58:00,
2013-07-17 11:03:00,68.6,54.1,30.04,WSW,250,4.0,25.0,60,0.00,,,0.00,Weather View 32 v70,2013-07-17 18:03:00,
2013-07-17 11:08:00,69.1,54.6,30.04,WSW,243,17.0,25.0,60,0.00,,,0.00,Weather View 32 v70,2013-07-17 18:08:00,
2013-07-17 11:13:00,68.9,54.4,30.04,NW,304,7.0,25.0,60,0.00,,,0.00,Weather View 32 v70,2013-07-17 18:13:00,
2013-07-17 11:18:00,69.4,54.9,30.04,NW,309,14.0,25.0,60,0.00,,,0.00,Weather View 32 v70,2013-07-17 18:18:00,
2013-07-17 11:23:00,69.6,54.6,30.04,WNW,287,6.0,25.0,59,0.00,,,0.00,Weather View 32 v70,2013-07-17 18:23:00,
2013-07-17 11:28:00,69.6,54.1,30.04,WNW,297,6.0,25.0,58,0.00,,,0.00,Weather View 32 v70,2013-07-17 18:28:00,
2013-07-17 11:33:00,69.6,54.1,30.05,NW,321,13.0,25.0,58,0.00,,,0.00,Weather View 32 v70,2013-07-17 18:33:00,
2013-07-17 11:38:00,69.9,54.4,30.04,WNW,287,14.0,23.0,58,0.00,,,0.00,Weather View 32 v70,2013-07-17 18:38:00,
2013-07-17 11:43:00,69.9,54.4,30.04,West,268,7.0,23.0,58,0.00,,,0.00,Weather View 32 v70,2013-07-17 18:43:00,
2013-07-17 11:48:00,69.9,54.4,30.04,West,267,11.0,23.0,58,0.00,,,0.00,Weather View 32 v70,2013-07-17 18:48:00,
2013-07-17 11:53:00,69.6,54.1,30.04,WNW,292,7.0,26.0,58,0.00,,,0.00,Weather View 32 v70,2013-07-17 18:53:00,
2013-07-17 11:58:00,69.6,54.1,30.04,WSW,242,8.0,26.0,58,0.00,,,0.00,Weather View 32 v70,2013-07-17 18:58:00,
2013-07-17 12:03:00,69.8,54.8,30.04,West,281,22.0,26.0,59,0.00,,,0.00,Weather View 32 v70,2013-07-17 19:03:00,
2013-07-17 12:08:00,69.9,54.4,30.04,WNW,292,5.0,26.0,58,0.00,,,0.00,Weather View 32 v70,2013-07-17 19:08:00,
2013-07-17 12:13:00,70.1,54.6,30.04,WSW,252,4.0,29.0,58,0.00,,,0.00,Weather View 32 v70,2013-07-17 19:13:00,
2013-07-17 12:18:00,70.4,54.4,30.04,WSW,257,8.0,29.0,57,0.00,,,0.00,Weather View 32 v70,2013-07-17 19:18:00,
2013-07-17 12:23:00,70.4,54.4,30.04,West,259,9.0,29.0,57,0.00,,,0.00,Weather View 32 v70,2013-07-17 19:23:00,
2013-07-17 12:28:00,70.6,54.6,30.04,WNW,288,6.0,29.0,57,0.00,,,0.00,Weather View 32 v70,2013-07-17 19:28:00,
2013-07-17 12:33:00,70.9,54.4,30.04,West,263,5.0,29.0,56,0.00,,,0.00,Weather View 32 v70,2013-07-17 19:33:00,
2013-07-17 12:38:00,71.5,54.9,30.04,NW,316,10.0,29.0,56,0.00,,,0.00,Weather View 32 v70,2013-07-17 19:38:00,
2013-07-17 12:43:00,71.8,54.7,30.04,West,262,12.0,29.0,55,0.00,,,0.00,Weather View 32 v70,2013-07-17 19:43:00,
2013-07-17 12:48:00,71.8,54.7,30.04,West,273,17.0,29.0,55,0.00,,,0.00,Weather View 32 v70,2013-07-17 19:48:00,
2013-07-17 12:53:00,71.8,54.2,30.04,WNW,290,10.0,29.0,54,0.00,,,0.00,Weather View 32 v70,2013-07-17 19:53:00,
2013-07-17 12:58:00,72.1,54.5,30.04,WNW,289,10.0,29.0,54,0.00,,,0.00,Weather View 32 v70,2013-07-17 19:58:00,
2013-07-17 13:03:00,72.3,54.7,30.04,West,275,10.0,29.0,54,0.00,,,0.00,Weather View 32 v70,2013-07-17 20:03:00,
2013-07-17 13:08:00,72.5,54.3,30.04,West,267,11.0,29.0,53,0.00,,,0.00,Weather View 32 v70,2013-07-17 20:08:00,
2013-07-17 13:13:00,73.2,54.5,30.04,NW,309,16.0,25.0,52,0.00,,,0.00,Weather View 32 v70,2013-07-17 20:13:00,
2013-07-17 13:18:00,73.2,54.5,30.04,West,274,13.0,25.0,52,0.00,,,0.00,Weather View 32 v70,2013-07-17 20:18:00,
2013-07-17 13:23:00,73.3,54.0,30.04,NW,306,7.0,25.0,51,0.00,,,0.00,Weather View 32 v70,2013-07-17 20:23:00,
2013-07-17 13:28:00,74.0,54.1,30.04,West,281,7.0,25.0,50,0.00,,,0.00,Weather View 32 v70,2013-07-17 20:28:00,
2013-07-17 13:33:00,73.7,53.8,30.04,WNW,286,5.0,25.0,50,0.00,,,0.00,Weather View 32 v70,2013-07-17 20:33:00,
2013-07-17 13:38:00,74.0,54.1,30.04,WNW,285,7.0,25.0,50,0.00,,,0.00,Weather View 32 v70,2013-07-17 20:38:00,
2013-07-17 13:43:00,74.4,54.5,30.04,WNW,287,6.0,25.0,50,0.00,,,0.00,Weather View 32 v70,2013-07-17 20:43:00,
2013-07-17 13:48:00,74.6,54.7,30.04,West,281,9.0,25.0,50,0.00,,,0.00,Weather View 32 v70,2013-07-17 20:48:00,
2013-07-17 13:53:00,74.9,54.4,30.04,NW,309,9.0,25.0,49,0.00,,,0.00,Weather View 32 v70,2013-07-17 20:53:00,
2013-07-17 13:58:00,75.3,54.2,30.04,NW,306,13.0,23.0,48,0.00,,,0.00,Weather View 32 v70,2013-07-17 20:58:00,
2013-07-17 14:03:00,75.4,53.7,30.04,NW,320,10.0,23.0,47,0.00,,,0.00,Weather View 32 v70,2013-07-17 21:03:00,
2013-07-17 14:08:00,75.6,53.9,30.04,WNW,302,7.0,23.0,47,0.00,,,0.00,Weather View 32 v70,2013-07-17 21:08:00,
2013-07-17 14:13:00,76.3,53.3,30.03,WNW,288,15.0,23.0,45,0.00,,,0.00,Weather View 32 v70,2013-07-17 21:13:00,
2013-07-17 14:18:00,76.3,53.3,30.03,NNW,330,11.0,23.0,45,0.00,,,0.00,Weather View 32 v70,2013-07-17 21:18:00,
2013-07-17 14:23:00,76.3,52.7,30.03,WNW,298,9.0,23.0,44,0.00,,,0.00,Weather View 32 v70,2013-07-17 21:23:00,
2013-07-17 14:28:00,76.8,53.8,30.03,WNW,289,18.0,22.0,45,0.00,,,0.00,Weather View 32 v70,2013-07-17 21:28:00,
2013-07-17 14:33:00,76.7,52.4,30.04,WSW,242,8.0,22.0,43,0.00,,,0.00,Weather View 32 v70,2013-07-17 21:33:00,
2013-07-17 14:38:00,77.2,52.9,30.03,WNW,285,15.0,22.0,43,0.00,,,0.00,Weather View 32 v70,2013-07-17 21:38:00,
2013-07-17 14:43:00,77.4,52.4,30.03,WNW,294,8.0,22.0,42,0.00,,,0.00,Weather View 32 v70,2013-07-17 21:43:00,
2013-07-17 14:48:00,77.2,52.9,30.03,WNW,293,11.0,22.0,43,0.00,,,0.00,Weather View 32 v70,2013-07-17 21:48:00,
2013-07-17 14:53:00,77.2,52.9,30.03,West,262,18.0,24.0,43,0.00,,,0.00,Weather View 32 v70,2013-07-17 21:53:00,
2013-07-17 14:58:00,77.6,53.3,30.03,West,277,13.0,24.0,43,0.00,,,0.00,Weather View 32 v70,2013-07-17 21:58:00,
2013-07-17 15:03:00,78.1,53.1,30.03,West,268,9.0,24.0,42,0.00,,,0.00,Weather View 32 v70,2013-07-17 22:03:00,
2013-07-17 15:08:00,78.3,53.9,30.03,NW,311,10.0,24.0,43,0.00,,,0.00,Weather View 32 v70,2013-07-17 22:08:00,
2013-07-17 15:13:00,77.9,52.9,30.03,WNW,286,5.0,24.0,42,0.00,,,0.00,Weather View 32 v70,2013-07-17 22:13:00,
2013-07-17 15:18:00,77.7,53.3,30.03,West,269,6.0,24.0,43,0.00,,,0.00,Weather View 32 v70,2013-07-17 22:18:00,
2013-07-17 15:23:00,78.1,53.1,30.03,WNW,294,6.0,24.0,42,0.00,,,0.00,Weather View 32 v70,2013-07-17 22:23:00,
2013-07-17 15:28:00,78.1,53.7,30.03,WSW,246,12.0,24.0,43,0.00,,,0.00,Weather View 32 v70,2013-07-17 22:28:00,
2013-07-17 15:33:00,78.5,52.1,30.03,WNW,286,16.0,24.0,40,0.00,,,0.00,Weather View 32 v70,2013-07-17 22:33:00,
2013-07-17 15:38:00,78.6,52.9,30.03,West,281,8.0,24.0,41,0.00,,,0.00,Weather View 32 v70,2013-07-17 22:38:00,
2013-07-17 15:43:00,78.6,52.2,30.03,West,267,6.0,24.0,40,0.00,,,0.00,Weather View 32 v70,2013-07-17 22:43:00,
2013-07-17 15:48:00,79.0,52.5,30.03,SW,220,7.0,24.0,40,0.00,,,0.00,Weather View 32 v70,2013-07-17 22:48:00,
2013-07-17 15:53:00,79.2,52.0,30.03,West,265,8.0,21.0,39,0.00,,,0.00,Weather View 32 v70,2013-07-17 22:53:00,
2013-07-17 15:58:00,79.2,52.0,30.03,WNW,286,13.0,21.0,39,0.00,,,0.00,Weather View 32 v70,2013-07-17 22:58:00,
2013-07-17 16:03:00,79.4,50.0,30.03,West,274,8.0,21.0,36,0.00,,,0.00,Weather View 32 v70,2013-07-17 23:03:00,
2013-07-17 16:08:00,79.6,51.0,30.03,West,263,5.0,21.0,37,0.00,,,0.00,Weather View 32 v70,2013-07-17 23:08:00,
2013-07-17 16:13:00,80.1,50.7,30.02,West,261,10.0,21.0,36,0.00,,,0.00,Weather View 32 v70,2013-07-17 23:13:00,
2013-07-17 16:18:00,80.3,50.1,30.02,WNW,285,9.0,21.0,35,0.00,,,0.00,Weather View 32 v70,2013-07-17 23:18:00,
2013-07-17 16:23:00,80.5,48.7,30.02,West,269,5.0,21.0,33,0.00,,,0.00,Weather View 32 v70,2013-07-17 23:23:00,
2013-07-17 16:28:00,80.7,49.6,30.02,West,261,7.0,21.0,34,0.00,,,0.00,Weather View 32 v70,2013-07-17 23:28:00,
2013-07-17 16:33:00,80.3,48.5,30.02,WNW,282,9.0,21.0,33,0.00,,,0.00,Weather View 32 v70,2013-07-17 23:33:00,
2013-07-17 16:38:00,80.3,49.3,30.02,West,265,7.0,21.0,34,0.00,,,0.00,Weather View 32 v70,2013-07-17 23:38:00,
2013-07-17 16:43:00,80.3,49.3,30.02,SW,224,7.0,21.0,34,0.00,,,0.00,Weather View 32 v70,2013-07-17 23:43:00,
2013-07-17 16:48:00,80.3,49.3,30.02,West,281,2.0,21.0,34,0.00,,,0.00,Weather View 32 v70,2013-07-17 23:48:00,
2013-07-17 16:53:00,80.5,49.5,30.02,NW,304,1.0,21.0,34,0.00,,,0.00,Weather View 32 v70,2013-07-17 23:53:00,
2013-07-17 16:58:00,80.5,49.5,30.02,WSW,250,6.0,21.0,34,0.00,,,0.00,Weather View 32 v70,2013-07-17 23:58:00,
2013-07-17 17:03:00,80.3,49.3,30.02,WNW,284,6.0,21.0,34,0.00,,,0.00,Weather View 32 v70,2013-07-18 00:03:00,
2013-07-17 17:08:00,80.3,50.1,30.02,West,262,7.0,21.0,35,0.00,,,0.00,Weather View 32 v70,2013-07-18 00:08:00,
2013-07-17 17:13:00,79.9,49.7,30.02,West,265,6.0,21.0,35,0.00,,,0.00,Weather View 32 v70,2013-07-18 00:13:00,
2013-07-17 17:18:00,80.3,50.8,30.02,WNW,290,1.0,21.0,36,0.00,,,0.00,Weather View 32 v70,2013-07-18 00:18:00,
2013-07-17 17:23:00,79.9,49.7,30.02,WNW,284,3.0,21.0,35,0.00,,,0.00,Weather View 32 v70,2013-07-18 00:23:00,
2013-07-17 17:28:00,79.6,50.2,30.02,WSW,246,9.0,21.0,36,0.00,,,0.00,Weather View 32 v70,2013-07-18 00:28:00,
2013-07-17 17:33:00,79.6,50.2,30.02,West,280,2.0,21.0,36,0.00,,,0.00,Weather View 32 v70,2013-07-18 00:33:00,
2013-07-17 17:38:00,79.6,47.9,30.01,West,261,5.0,19.0,33,0.00,,,0.00,Weather View 32 v70,2013-07-18 00:38:00,
2013-07-17 17:43:00,79.6,51.0,30.01,WSW,250,13.0,19.0,37,0.00,,,0.00,Weather View 32 v70,2013-07-18 00:43:00,
2013-07-17 17:48:00,79.6,49.5,30.01,West,267,9.0,19.0,35,0.00,,,0.00,Weather View 32 v70,2013-07-18 00:48:00,
2013-07-17 17:53:00,79.6,49.5,30.01,WSW,252,16.0,19.0,35,0.00,,,0.00,Weather View 32 v70,2013-07-18 00:53:00,
2013-07-17 17:58:00,79.4,49.3,30.01,WNW,293,4.0,19.0,35,0.00,,,0.00,Weather View 32 v70,2013-07-18 00:58:00,
2013-07-17 18:03:00,79.4,49.3,30.01,WNW,288,4.0,19.0,35,0.00,,,0.00,Weather View 32 v70,2013-07-18 01:03:00,
2013-07-17 18:08:00,79.2,51.3,30.01,NW,314,4.0,19.0,38,0.00,,,0.00,Weather View 32 v70,2013-07-18 01:08:00,
2013-07-17 18:13:00,79.2,50.6,30.01,WNW,291,7.0,19.0,37,0.00,,,0.00,Weather View 32 v70,2013-07-18 01:13:00,
2013-07-17 18:18:00,79.0,50.4,30.01,West,281,9.0,19.0,37,0.00,,,0.00,Weather View 32 v70,2013-07-18 01:18:00,
2013-07-17 18:23:00,79.0,49.7,30.01,WSW,250,12.0,19.0,36,0.00,,,0.00,Weather View 32 v70,2013-07-18 01:23:00,
2013-07-17 18:28:00,78.8,48.8,30.01,NNW,336,13.0,19.0,35,0.00,,,0.00,Weather View 32 v70,2013-07-18 01:28:00,
2013-07-17 18:33:00,78.6,50.1,30.01,West,268,8.0,19.0,37,0.00,,,0.00,Weather View 32 v70,2013-07-18 01:33:00,
2013-07-17 18:38:00,78.5,50.0,30.01,West,273,5.0,19.0,37,0.00,,,0.00,Weather View 32 v70,2013-07-18 01:38:00,
2013-07-17 18:43:00,78.6,48.6,30.01,WSW,240,4.0,19.0,35,0.00,,,0.00,Weather View 32 v70,2013-07-18 01:43:00,
2013-07-17 18:48:00,78.5,48.5,30.01,SSW,210,9.0,19.0,35,0.00,,,0.00,Weather View 32 v70,2013-07-18 01:48:00,
2013-07-17 18:53:00,78.5,49.2,30.01,SW,224,4.0,19.0,36,0.00,,,0.00,Weather View 32 v70,2013-07-18 01:53:00,
2013-07-17 18:58:00,78.6,47.0,30.01,WNW,290,9.0,19.0,33,0.00,,,0.00,Weather View 32 v70,2013-07-18 01:58:00,
2013-07-17 19:03:00,78.6,47.8,30.01,West,273,8.0,19.0,34,0.00,,,0.00,Weather View 32 v70,2013-07-18 02:03:00,
2013-07-17 19:08:00,78.6,47.8,30.01,West,279,2.0,19.0,34,0.00,,,0.00,Weather View 32 v70,2013-07-18 02:08:00,
2013-07-17 19:13:00,78.6,48.6,30.01,WNW,285,1.0,19.0,35,0.00,,,0.00,Weather View 32 v70,2013-07-18 02:13:00,
2013-07-17 19:18:00,78.3,46.7,30.01,West,261,7.0,19.0,33,0.00,,,0.00,Weather View 32 v70,2013-07-18 02:18:00,
2013-07-17 19:23:00,78.3,47.5,30.01,West,278,9.0,19.0,34,0.00,,,0.00,Weather View 32 v70,2013-07-18 02:23:00,
2013-07-17 19:28:00,78.1,47.4,30.01,NW,320,4.0,20.0,34,0.00,,,0.00,Weather View 32 v70,2013-07-18 02:28:00,
2013-07-17 19:33:00,77.7,47.8,30.01,WSW,257,5.0,20.0,35,0.00,,,0.00,Weather View 32 v70,2013-07-18 02:33:00,
2013-07-17 19:38:00,77.6,46.9,30.01,NW,314,4.0,20.0,34,0.00,,,0.00,Weather View 32 v70,2013-07-18 02:38:00,
2013-07-17 19:43:00,77.4,49.0,30.01,NW,304,5.0,20.0,37,0.00,,,0.00,Weather View 32 v70,2013-07-18 02:43:00,
2013-07-17 19:48:00,77.2,48.8,30.01,West,262,7.0,20.0,37,0.00,,,0.00,Weather View 32 v70,2013-07-18 02:48:00,
2013-07-17 19:53:00,76.8,49.2,30.01,WNW,303,7.0,20.0,38,0.00,,,0.00,Weather View 32 v70,2013-07-18 02:53:00,
2013-07-17 19:58:00,76.5,49.6,30.01,West,272,7.0,20.0,39,0.00,,,0.00,Weather View 32 v70,2013-07-18 02:58:00,
2013-07-17 20:03:00,76.1,50.6,30.02,WSW,242,4.0,20.0,41,0.00,,,0.00,Weather View 32 v70,2013-07-18 03:03:00,
2013-07-17 20:08:00,75.8,51.0,30.02,WNW,303,9.0,20.0,42,0.00,,,0.00,Weather View 32 v70,2013-07-18 03:08:00,
2013-07-17 20:13:00,75.6,51.5,30.02,WNW,288,9.0,20.0,43,0.00,,,0.00,Weather View 32 v70,2013-07-18 03:13:00,
2013-07-17 20:18:00,75.3,51.2,30.02,WNW,296,6.0,20.0,43,0.00,,,0.00,Weather View 32 v70,2013-07-18 03:18:00,
2013-07-17 20:23:00,74.9,52.1,30.02,WNW,297,3.0,20.0,45,0.00,,,0.00,Weather View 32 v70,2013-07-18 03:23:00,
2013-07-17 20:28:00,74.6,51.8,30.02,West,265,4.0,19.0,45,0.00,,,0.00,Weather View 32 v70,2013-07-18 03:28:00,
2013-07-17 20:33:00,74.2,52.0,30.02,West,268,4.0,18.0,46,0.00,,,0.00,Weather View 32 v70,2013-07-18 03:33:00,
2013-07-17 20:38:00,73.9,52.3,30.02,West,276,7.0,18.0,47,0.00,,,0.00,Weather View 32 v70,2013-07-18 03:38:00,
2013-07-17 20:43:00,73.7,52.7,30.02,West,277,3.0,18.0,48,0.00,,,0.00,Weather View 32 v70,2013-07-18 03:43:00,
2013-07-17 20:48:00,73.5,53.1,30.02,West,267,1.0,18.0,49,0.00,,,0.00,Weather View 32 v70,2013-07-18 03:48:00,
2013-07-17 20:53:00,73.2,53.4,30.03,West,278,4.0,18.0,50,0.00,,,0.00,Weather View 32 v70,2013-07-18 03:53:00,
2013-07-17 20:58:00,73.0,53.2,30.03,West,273,6.0,18.0,50,0.00,,,0.00,Weather View 32 v70,2013-07-18 03:58:00,
2013-07-17 21:01:00,72.8,53.0,30.03,West,279,7.0,18.0,50,0.00,,,0.00,Weather View 32 v70,2013-07-18 04:01:00,
2013-07-17 21:06:00,72.8,53.0,30.03,West,270,4.0,18.0,50,0.00,,,0.00,Weather View 32 v70,2013-07-18 04:06:00,
2013-07-17 21:11:00,72.7,52.9,30.03,WSW,249,2.0,18.0,50,0.00,,,0.00,Weather View 32 v70,2013-07-18 04:11:00,
2013-07-17 21:16:00,72.5,52.7,30.04,WSW,252,6.0,18.0,50,0.00,,,0.00,Weather View 32 v70,2013-07-18 04:16:00,
2013-07-17 21:21:00,72.3,52.6,30.04,WSW,250,2.0,18.0,50,0.00,,,0.00,Weather View 32 v70,2013-07-18 04:21:00,
2013-07-17 21:26:00,72.1,52.9,30.04,WSW,245,2.0,18.0,51,0.00,,,0.00,Weather View 32 v70,2013-07-18 04:26:00,
2013-07-17 21:31:00,71.8,52.6,30.05,West,281,5.0,17.0,51,0.00,,,0.00,Weather View 32 v70,2013-07-18 04:31:00,
2013-07-17 21:36:00,71.6,52.5,30.05,North,0,7.0,17.0,51,0.00,,,0.00,Weather View 32 v70,2013-07-18 04:36:00,
2013-07-17 21:41:00,71.5,52.4,30.05,West,270,3.0,17.0,51,0.00,,,0.00,Weather View 32 v70,2013-07-18 04:41:00,
2013-07-17 21:46:00,71.3,52.7,30.05,West,265,2.0,15.0,52,0.00,,,0.00,Weather View 32 v70,2013-07-18 04:46:00,
2013-07-17 21:51:00,70.9,52.3,30.05,West,269,5.0,15.0,52,0.00,,,0.00,Weather View 32 v70,2013-07-18 04:51:00,
2013-07-17 21:56:00,70.8,52.8,30.05,WSW,257,1.0,15.0,53,0.00,,,0.00,Weather View 32 v70,2013-07-18 04:56:00,
2013-07-17 22:01:00,70.4,52.4,30.06,WSW,252,2.0,15.0,53,0.00,,,0.00,Weather View 32 v70,2013-07-18 05:01:00,
2013-07-17 22:06:00,70.4,52.4,30.06,West,262,2.0,14.0,53,0.00,,,0.00,Weather View 32 v70,2013-07-18 05:06:00,
2013-07-17 22:11:00,70.3,52.3,30.06,West,263,0.0,14.0,53,0.00,,,0.00,Weather View 32 v70,2013-07-18 05:11:00,
2013-07-17 22:16:00,69.9,52.4,30.06,West,271,2.0,14.0,54,0.00,,,0.00,Weather View 32 v70,2013-07-18 05:16:00,
2013-07-17 22:21:00,69.8,52.4,30.06,West,265,0.0,9.0,54,0.00,,,0.00,Weather View 32 v70,2013-07-18 05:21:00,
2013-07-17 22:26:00,69.6,52.7,30.06,WNW,302,7.0,9.0,55,0.00,,,0.00,Weather View 32 v70,2013-07-18 05:26:00,
2013-07-17 22:31:00,69.6,52.7,30.06,West,263,3.0,9.0,55,0.00,,,0.00,Weather View 32 v70,2013-07-18 05:31:00,
2013-07-17 22:36:00,69.4,52.5,30.07,WSW,252,1.0,9.0,55,0.00,,,0.00,Weather View 32 v70,2013-07-18 05:36:00,
2013-07-17 22:41:00,69.3,52.4,30.07,SW,233,0.0,11.0,55,0.00,,,0.00,Weather View 32 v70,2013-07-18 05:41:00,
2013-07-17 22:46:00,69.3,52.9,30.07,SSW,197,2.0,11.0,56,0.00,,,0.00,Weather View 32 v70,2013-07-18 05:46:00,
2013-07-17 22:51:00,69.1,52.7,30.07,WSW,249,1.0,11.0,56,0.00,,,0.00,Weather View 32 v70,2013-07-18 05:51:00,
2013-07-17 22:56:00,68.8,53.4,30.07,SW,236,2.0,11.0,58,0.00,,,0.00,Weather View 32 v70,2013-07-18 05:56:00,
2013-07-17 23:01:00,68.8,53.4,30.07,West,266,4.0,11.0,58,0.00,,,0.00,Weather View 32 v70,2013-07-18 06:01:00,
2013-07-17 23:06:00,68.8,53.4,30.07,West,261,6.0,11.0,58,0.00,,,0.00,Weather View 32 v70,2013-07-18 06:06:00,
2013-07-17 23:11:00,68.8,53.4,30.07,WSW,252,1.0,11.0,58,0.00,,,0.00,Weather View 32 v70,2013-07-18 06:11:00,
2013-07-17 23:16:00,68.6,53.7,30.07,North,0,4.0,11.0,59,0.00,,,0.00,Weather View 32 v70,2013-07-18 06:16:00,
2013-07-17 23:21:00,68.4,53.9,30.07,West,272,6.0,11.0,60,0.00,,,0.00,Weather View 32 v70,2013-07-18 06:21:00,
2013-07-17 23:26:00,68.4,53.9,30.08,West,276,2.0,11.0,60,0.00,,,0.00,Weather View 32 v70,2013-07-18 06:26:00,
2013-07-17 23:31:00,68.4,53.9,30.08,West,281,1.0,11.0,60,0.00,,,0.00,Weather View 32 v70,2013-07-18 06:31:00,
2013-07-17 23:36:00,68.3,53.8,30.08,West,271,2.0,11.0,60,0.00,,,0.00,Weather View 32 v70,2013-07-18 06:36:00,
2013-07-17 23:41:00,68.3,54.3,30.08,SW,223,4.0,11.0,61,0.00,,,0.00,Weather View 32 v70,2013-07-18 06:41:00,
2013-07-17 23:46:00,67.9,54.4,30.08,WSW,242,6.0,12.0,62,0.00,,,0.00,Weather View 32 v70,2013-07-18 06:46:00,
2013-07-17 23:51:00,67.8,54.3,30.09,SW,234,4.0,12.0,62,0.00,,,0.00,Weather View 32 v70,2013-07-18 06:51:00,
2013-07-17 23:56:00,67.6,54.5,30.09,WNW,298,5.0,12.0,63,0.00,,,0.00,Weather View 32 v70,2013-07-18 06:56:00,